TimeEDT,TemperatureF,Dew PointF,Humidity,Sea Level PressureIn,VisibilityMPH,Wind Direction,Wind SpeedMPH,Gust SpeedMPH,PrecipitationIn,Events,Conditions,WindDirDegrees,DateUTC
12:53 AM,71.1,68.0,90,29.91,10.0,SSW,4.6,-,N/A,,Scattered Clouds,210,2013-07-28 04:53:00
1:53 AM,71.1,68.0,90,29.90,9.0,West,5.8,-,N/A,,Mostly Cloudy,260,2013-07-28 05:53:00
2:26 AM,71.6,69.8,94,29.93,9.0,WSW,4.6,-,N/A,,Mostly Cloudy,240,2013-07-28 06:26:00
2:53 AM,71.1,69.1,93,29.90,8.0,SW,4.6,-,N/A,,Overcast,230,2013-07-28 06:53:00
3:38 AM,69.8,68.0,94,29.93,8.0,SW,4.6,-,N/A,,Overcast,220,2013-07-28 07:38:00
3:53 AM,70.0,68.0,93,29.91,8.0,SW,4.6,-,N/A,,Mostly Cloudy,230,2013-07-28 07:53:00
4:50 AM,69.8,68.0,94,29.94,8.0,WSW,3.5,-,N/A,,Overcast,240,2013-07-28 08:50:00
4:53 AM,70.0,68.0,93,29.92,8.0,WSW,4.6,-,N/A,,Overcast,240,2013-07-28 08:53:00
5:53 AM,71.1,69.1,93,29.93,7.0,WNW,3.5,-,N/A,,Overcast,290,2013-07-28 09:53:00
6:00 AM,71.6,69.8,94,29.96,7.0,West,3.5,-,N/A,,Overcast,270,2013-07-28 10:00:00
6:53 AM,71.1,68.0,90,29.95,8.0,North,4.6,-,N/A,,Overcast,350,2013-07-28 10:53:00
7:53 AM,71.1,66.0,84,29.97,10.0,NNW,3.5,-,N/A,,Mostly Cloudy,340,2013-07-28 11:53:00
8:53 AM,72.0,63.0,73,29.98,10.0,North,9.2,-,N/A,,Mostly Cloudy,10,2013-07-28 12:53:00
9:53 AM,73.0,63.0,71,29.98,10.0,North,8.1,-,N/A,,Scattered Clouds,10,2013-07-28 13:53:00
10:53 AM,73.9,62.1,66,29.99,10.0,Calm,Calm,-,N/A,,Mostly Cloudy,0,2013-07-28 14:53:00
11:53 AM,77.0,64.0,64,30.00,10.0,Calm,Calm,-,N/A,,Scattered Clouds,0,2013-07-28 15:53:00
12:53 PM,79.0,64.0,60,30.00,10.0,Calm,Calm,-,N/A,,Scattered Clouds,0,2013-07-28 16:53:00
1:53 PM,80.1,64.0,58,29.98,10.0,WSW,6.9,-,N/A,,Scattered Clouds,250,2013-07-28 17:53:00
2:53 PM,82.0,62.1,51,29.98,10.0,WSW,11.5,-,N/A,,Scattered Clouds,250,2013-07-28 18:53:00
3:53 PM,82.0,60.1,47,29.96,10.0,West,8.1,-,N/A,,Scattered Clouds,260,2013-07-28 19:53:00
4:53 PM,80.1,59.0,48,29.97,10.0,WSW,9.2,-,N/A,,Scattered Clouds,250,2013-07-28 20:53:00
5:53 PM,81.0,59.0,47,29.96,10.0,Variable,3.5,-,N/A,,Scattered Clouds,0,2013-07-28 21:53:00
6:53 PM,80.1,60.1,50,29.96,10.0,West,4.6,-,N/A,,Mostly Cloudy,270,2013-07-28 22:53:00
7:53 PM,78.1,62.1,58,29.98,10.0,West,4.6,-,N/A,,Scattered Clouds,280,2013-07-28 23:53:00
8:53 PM,73.9,62.1,66,30.00,10.0,West,5.8,-,N/A,,Scattered Clouds,280,2013-07-29 00:53:00
9:53 PM,73.0,61.0,66,30.03,10.0,WSW,3.5,-,N/A,,Partly Cloudy,250,2013-07-29 01:53:00
10:53 PM,72.0,61.0,68,30.05,10.0,NNW,3.5,-,N/A,,Mostly Cloudy,330,2013-07-29 02:53:00
11:53 PM,69.1,57.0,65,30.06,10.0,North,5.8,-,N/A,,Partly Cloudy,350,2013-07-29 03:53:00